GW4755 Weather Reports


Display with metric or nautical units.
time (UTC)temp
F
wind
direction
speed
MPH
gust
MPH
rain 1hr
in
rain 24hr
in
rain mn
in
humidity
%
barometer
mb
20260904082503 54 17 0.0 0.0 0.00 0.00 0.00 93 999.3
20260904081004 54 7 0.0 0.0 0.00 0.00 0.00 93 999.0
20260904075503 54 3 0.0 0.0 0.00 0.00 0.00 93 999.0
20260904074004 55 358 0.0 0.0 0.00 0.00 0.00 92 999.0
20260904072504 55 9 0.0 0.0 0.00 0.00 0.00 92 999.0
20260904071003 55 359 0.0 0.0 0.00 0.00 0.00 92 999.0
20260904064005 56 17 0.0 0.0 0.00 0.00 0.00 92 999.0
20260904062504 56 359 0.0 0.0 0.00 0.00 0.00 92 999.0
20260904061003 57 342 0.0 0.0 0.00 0.00 0.00 92 998.6
20260904055503 57 5 0.0 0.0 0.00 0.00 0.00 92 999.0
20260904054502 57 358 0.0 0.0 0.00 0.00 0.00 92 999.0
20260904053004 58 332 0.0 0.0 0.00 0.00 0.00 92 999.0
20260904051504 58 342 0.0 0.0 0.00 0.00 0.00 92 999.3
20260904050005 58 345 0.0 0.0 0.00 0.00 0.00 92 999.3
20260904045004 58 330 0.0 0.0 0.00 0.00 0.00 92 999.3
20260904044002 58 334 0.0 0.0 0.00 0.00 0.00 92 999.3
20260904042502 59 350 0.0 0.0 0.00 0.00 0.00 92 999.0
20260904041004 59 339 0.0 0.0 0.00 0.00 0.00 92 999.0
20260904035503 59 297 0.0 0.0 0.00 0.00 0.00 92 999.0
20260904034003 59 345 0.0 0.0 0.00 0.00 0.00 92 999.0
20260904032503 59 324 0.0 0.0 0.00 0.00 0.00 92 998.6
20260904025504 59 4 0.0 0.0 0.00 0.00 0.00 92 998.6
20260904024005 59 348 0.0 0.0 0.00 0.00 0.00 91 998.6
20260904022605 60 353 0.0 0.0 0.00 0.00 0.00 91 998.6
20260904021503 60 324 0.0 0.0 0.00 0.00 0.00 91 999.0
20260904020006 60 3 0.0 0.0 0.00 0.00 0.00 91 999.0
20260904015003 60 322 0.0 0.0 0.00 0.00 0.00 91 999.0
20260904014002 60 332 0.0 0.0 0.00 0.00 0.00 91 999.0
20260904012502 60 349 0.0 0.0 0.00 0.00 0.00 90 999.0
20260904011006 61 332 0.0 0.0 0.00 0.00 0.00 90 999.0
20260904010005 61 11 0.0 0.0 0.00 0.00 0.00 90 999.0
20260904003006 61 351 0.0 0.0 0.00 0.00 0.00 91 999.0
20260904001503 61 336 0.0 0.0 0.00 0.00 0.00 91 999.0
20260904000005 61 347 0.0 0.0 0.00 0.00 0.00 91 999.3
20260903233503 61 336 0.0 0.0 0.00 0.00 0.39 90 999.7
20260903232005 61 8 0.0 0.0 0.00 0.00 0.39 90 999.7
20260903230504 61 356 0.0 0.0 0.00 0.00 0.39 90 1000.0
20260903225006 61 27 0.0 0.0 0.00 0.00 0.39 89 1000.0
20260903223505 62 9 0.0 0.0 0.00 0.00 0.39 88 1000.0
20260903221004 63 338 0.0 0.0 0.00 0.00 0.39 87 1000.0
20260903215504 63 315 0.0 0.0 0.00 0.00 0.39 87 1000.0
20260903214504 63 30 0.0 1.0 0.01 0.00 0.39 86 1000.3
20260903213005 63 317 0.0 0.0 0.01 0.00 0.39 88 1000.0
20260903211503 64 307 0.0 0.0 0.01 0.00 0.39 88 1000.0
20260903210006 64 339 0.0 0.0 0.01 0.00 0.39 88 1000.3
20260903204504 64 337 0.0 0.0 0.00 0.00 0.38 87 1000.3
20260903201504 63 332 0.0 0.0 0.00 0.00 0.38 90 1000.3
20260903194504 62 7 0.0 0.0 0.00 0.00 0.38 91 1000.7
20260903193004 62 11 0.0 0.0 0.00 0.00 0.38 92 1000.7
20260903191505 62 7 0.0 0.0 0.00 0.00 0.38 92 1001.0
20260903190005 62 15 0.0 0.0 0.00 0.00 0.38 93 1001.0
20260903184504 63 8 0.0 0.0 0.00 0.00 0.38 93 1001.0
20260903183006 62 28 0.0 0.0 0.00 0.00 0.38 93 1001.0
20260903181504 62 5 0.0 0.0 0.02 0.00 0.38 93 1001.0
20260903180004 62 354 0.0 0.0 0.02 0.00 0.38 93 1001.0
20260903174505 62 39 0.0 0.0 0.04 0.00 0.38 93 1001.0
20260903171505 61 7 0.0 0.0 0.06 0.00 0.36 93 1001.0
20260903170004 62 37 0.0 0.0 0.06 0.00 0.36 93 1001.0
20260903164504 62 16 0.0 0.0 0.06 0.00 0.34 93 1000.7
20260903162003 62 6 0.0 1.0 0.05 0.00 0.31 94 1000.7
20260903155005 61 359 0.0 0.0 0.07 0.00 0.28 93 1001.0
20260903153504 61 23 0.0 0.0 0.09 0.00 0.27 94 1001.0
20260903152006 61 4 0.0 0.0 0.08 0.00 0.26 93 1001.0
20260903150505 61 3 0.0 0.0 0.06 0.00 0.22 93 1001.0
20260903145005 60 354 0.0 0.0 0.05 0.00 0.20 93 1001.0
20260903142004 60 348 0.0 0.0 0.07 0.00 0.17 93 1000.7
20260903140505 60 331 0.0 0.0 0.10 0.00 0.16 93 1000.7
20260903135004 60 355 0.0 0.0 0.09 0.00 0.14 93 1000.7
20260903133503 59 356 0.0 0.0 0.09 0.00 0.12 92 1000.7
20260903132004 59 337 0.0 0.0 0.06 0.00 0.08 92 1000.7
20260903130504 59 338 0.0 0.0 0.06 0.00 0.06 92 1001.0
20260903123504 59 353 0.0 0.0 0.03 0.00 0.03 92 1001.0
20260903120503 59 1 0.0 0.0 0.00 0.00 0.00 91 1001.4
20260903115004 58 338 0.0 0.0 0.00 0.00 0.00 91 1001.4
20260903112004 58 352 0.0 0.0 0.00 0.00 0.00 91 1001.7
20260903110504 58 354 0.0 0.0 0.00 0.00 0.00 91 1001.7
20260903104503 58 18 0.0 0.0 0.00 0.00 0.00 91 1001.7
20260903103005 58 348 0.0 0.0 0.00 0.00 0.00 91 1002.0
20260903102004 58 0 0.0 0.0 0.00 0.00 0.00 91 1002.0
20260903100503 58 343 0.0 0.0 0.00 0.00 0.00 91 1002.0
20260903095004 58 353 0.0 0.0 0.00 0.00 0.00 91 1002.0
20260903093003 58 345 0.0 0.0 0.00 0.00 0.00 91 1002.4
20260903091505 58 8 0.0 0.0 0.00 0.00 0.00 91 1002.7
20260903090005 57 354 0.0 0.0 0.00 0.00 0.00 91 1002.7
20260903084504 57 349 0.0 0.0 0.00 0.00 0.00 91 1002.7